Location: Karcze
(52.0945°N, 22.4786°E)
Time: 02:53:09
(UTC+00:00)

Transit 2A Rocket - Pass Details

Date: 03 August 2021
Orbit: 586 x 917 km, 66.7° (Epoch: 27 September)

Event Time Altitude Azimuth Distance (km) Brightness Sun altitude
Rises 10:46:34 0° 156° (SSE) 2,859 8.4 55.2°
Reaches altitude 10° 10:50:12 10° 124° (SE) 2,015 7.6 55.2°
Maximum altitude 10:51:48 12° 103° (ESE) 1,930 7.3 55.1°
Drops below altitude 10° 10:53:27 10° 83° (E) 2,080 7.3 55.1°
Sets 10:57:21 0° 52° (NE) 3,085 7.9 55.0°
